Location: Albert Place
(40.7505°N, 111.9230°W)
Time: 13:19:15
(UTC+00:00)

Cosmos 192 - Pass Details

Date: 13 December 2025
Orbit: 696 x 707 km, 74.0° (Epoch: 17 January)

Event Time Altitude Azimuth Distance (km) Brightness Sun altitude
Exits shadow 13:34:50 - 339° (NNW) 2,576 6.8 -12.6°
Reaches altitude 10° 13:35:50 10° 339° (NNW) 2,178 6.5 -12.4°
Maximum altitude 13:40:45 83° 253° (WSW) 713 4.3 -11.5°
Drops below altitude 10° 13:45:37 10° 165° (SSE) 2,155 7.4 -10.7°
Sets 13:47:55 0° 165° (SSE) 3,067 8.2 -10.3°
